Tracking 18852 objects as of 23-Nov-2017
HD Live streaming from Space Station
objects crossing your sky now

FENGYUN 1C DEB

Track FENGYUN 1C DEB now!
10-day predictions


NORAD ID: 30961
Int'l Code: 1999-025BBB
Perigee: 635.8 km
Apogee: 847.7 km
Inclination: 98.9 °
Period: 99.5 minutes
Semi major axis: 7112 km
RCS: 0.0085 m2 (small)
Launch date: May 10, 1999
Source: People's Republic of China (PRC)
Launch site: Taiyaun Space Center, China (TSC)

Note: This is SATELLITE DEBRIS
aabbcc
Your satellite tracking list
Your tracking list is empty




NASA's NSSDC Master Catalog

Two Line Element Set (TLE):
1 30961U 99025BBB 17326.83885611  .00000514  00000-0  13553-3 0  9993
2 30961  98.9274 186.2450 0148921 116.3898 245.2666 14.47257147564173
Source of the keplerian elements: AFSPC